Hourly Data Report for September 17, 2006

TORONTO CITY
ONTARIO

43°40'00.000" N
79°24'00.000" W
112.50 m
6158355
71508
XTO

Download Data

Hourly Data (September 2006)
Hourly Data Report for September 17, 2006
TIME
LST
Temp Definition
°C
Dew Point Definition
°C
Rel Hum Definition
%
Precip. Amount Definition
mm

Wind Dir Definition
10's deg

Wind Spd Definition
km/h
Visibility Definition
km
Stn Press Definition
kPa
Hmdx Definition


Wind Chill Definition


Weather Definition


00:00 17.6 17.2 98   LegendMM LegendMM   100.44     LegendNANA
01:00 17.2 16.9 98   LegendMM LegendMM   100.36     LegendNANA
02:00 17.3 17.1 99   LegendMM LegendMM   100.29     LegendNANA
03:00 17.4 17.3 99   LegendMM LegendMM   100.20     LegendNANA
04:00 17.3 17.1 99   LegendMM LegendMM   100.22     LegendNANA
05:00 16.9 16.7 99   LegendMM LegendMM   100.28     LegendNANA
06:00 16.6 16.4 99   LegendMM LegendMM   100.27     LegendNANA
07:00 17.2 17.0 99   LegendMM LegendMM   100.28     LegendNANA
08:00 16.8 16.4 97   LegendMM LegendMM   100.27     LegendNANA
09:00 18.7 17.7 94   LegendMM LegendMM   100.28     LegendNANA
10:00 18.7 17.3 92   LegendMM LegendMM   100.17     LegendNANA
11:00 20.0 17.9 88   LegendMM LegendMM   100.10 26   LegendNANA
12:00 21.1 18.2 84   LegendMM LegendMM   100.03 27   LegendNANA
13:00 23.3 18.8 76   LegendMM LegendMM   99.96 30   LegendNANA
14:00 23.8 18.6 73   LegendMM LegendMM   99.81 30   LegendNANA
15:00 23.5 18.4 73   LegendMM LegendMM   99.71 30   LegendNANA
16:00 22.7 17.9 74   LegendMM LegendMM   99.62 29   LegendNANA
17:00 22.0 17.6 76   LegendMM LegendMM   99.62 28   LegendNANA
18:00 21.4 17.3 77   LegendMM LegendMM   99.70 27   LegendNANA
19:00 21.1 17.1 78   LegendMM LegendMM   99.66 26   LegendNANA
20:00 20.4 17.5 83   LegendMM LegendMM   99.70 26   LegendNANA
21:00 19.8 17.6 87   LegendMM LegendMM   99.65     LegendNANA
22:00 19.6 17.4 87   LegendMM LegendMM   99.61     LegendNANA
23:00 19.5 17.4 88   LegendMM LegendMM   99.62     LegendNANA

Notes on Data Quality.

Legend

  • E = Estimated
  • M = Missing
  • NA = Not Available*
  • [empty] = Indicates an unobserved value
Date modified: